Spokane, WA
on Thursday, February 14, 2013

Thursday
Previous Day Next Day
Daily Summary
 ActualAverageRecord
Temperature
Mean Temperature °F 33°F  
Max Temperature 41°F 39°F 55°F (1924)
Min Temperature 25°F 26°F -12°F (1884)
Degree Days
Heating Degree Days 32 32  
Month to date heating degree days 445 462  
Since 1 July heating degree days 4113 4395  
Cooling Degree Days 0 0  
Month to date cooling degree days 0 0  
Year to date cooling degree days 0 0  
Moisture
Dew Point 27°F   
Average Humidity 76    
Maximum Humidity 92    
Minimum Humidity 59    
Precipitation
Precipitation 0.00 in 0.05 in 0.54 in (1939)
Month to date precipitation 0.04 0.66  
Year to date precipitation 1.67 2.45  
Snow
Snow 0.00 in 0.20 in 4.00 in (1923)
Month to date snowfall 0.3 3.7  
Since 1 July snowfall 38.5 37.2  
Snow Depth 0.00 in   
Wind
Wind Speed 4 mph   
Max Wind Speed 10 mph   
Max Gust Speed 14 mph   
Visibility 10 miles   
Events     

Key: T is trace of precipitation, MM is missing value
Source: NWS Daily Summary
Time(PST)TemperatureDew PointHumidity Pressure Visibility Wind DirectionWind SpeedGust SpeedPrecipitationEvents Conditions
12:53 AM 28.9°F 23.0°F 78% 30.38 in 10.0 miles SSW 3.5 mph - N/A   Partly Cloudy
1:53 AM 24.8°F 21.2°F 86% 30.34 in 10.0 miles SSW 3.5 mph - N/A   Clear
2:53 AM 25.0°F 21.0°F 85% 30.42 in 10.0 miles Calm Calm - N/A   Scattered Clouds
3:53 AM 27.0°F 24.1°F 89% 30.42 in 10.0 miles South 5.8 mph - N/A   Scattered Clouds
4:53 AM 28.0°F 25.0°F 88% 30.43 in 10.0 miles SSE 10.4 mph - N/A   Overcast
5:53 AM 27.0°F 25.0°F 92% 30.44 in 10.0 miles SSE 6.9 mph - N/A   Mostly Cloudy
6:53 AM 28.0°F 25.0°F 88% 30.46 in 10.0 miles SSE 6.9 mph - N/A   Overcast
7:53 AM 28.0°F 26.1°F 92% 30.48 in 10.0 miles SSE 6.9 mph - N/A   Mostly Cloudy
8:53 AM 30.0°F 28.0°F 92% 30.49 in 10.0 miles South 6.9 mph - N/A   Mostly Cloudy
9:53 AM 33.1°F 28.9°F 85% 30.51 in 10.0 miles South 5.8 mph - N/A   Overcast
10:53 AM 37.0°F 28.9°F 73% 30.49 in 10.0 miles SSW 5.8 mph - N/A   Mostly Cloudy
11:53 AM 39.0°F 28.0°F 65% 30.50 in 10.0 miles SW 9.2 mph - N/A   Mostly Cloudy
12:53 PM 39.0°F 28.9°F 67% 30.49 in 10.0 miles South 4.6 mph - N/A   Mostly Cloudy
1:53 PM 39.9°F 28.0°F 63% 30.49 in 10.0 miles SW 8.1 mph - N/A   Mostly Cloudy
2:53 PM 41.0°F 28.9°F 62% 30.50 in 10.0 miles SSW 6.9 mph - N/A   Mostly Cloudy
3:53 PM 39.9°F 30.9°F 70% 30.50 in 10.0 miles SW 3.5 mph - N/A   Mostly Cloudy
4:53 PM 39.0°F 27.0°F 62% 30.51 in 10.0 miles West 5.8 mph - N/A   Scattered Clouds
5:53 PM 36.0°F 27.0°F 70% 30.51 in 10.0 miles Calm Calm - N/A   Scattered Clouds
6:53 PM 35.1°F 27.0°F 72% 30.51 in 10.0 miles Calm Calm - N/A   Scattered Clouds
7:53 PM 30.0°F 25.0°F 82% 30.53 in 10.0 miles Calm Calm - N/A   Partly Cloudy
8:53 PM 32.0°F 26.1°F 79% 30.53 in 10.0 miles Calm Calm - N/A   Clear
9:53 PM 32.0°F 27.0°F 82% 30.54 in 10.0 miles SSE 3.5 mph - N/A   Partly Cloudy
10:53 PM 30.9°F 27.0°F 85% 30.56 in 10.0 miles Calm Calm - N/A   Clear
11:53 PM 30.0°F 27.0°F 88% 30.56 in 10.0 miles Calm Calm - N/A   Partly Cloudy
Moon Phase
Feb. 14 Feb. 17 Feb. 25 Mar. 04 Mar. 11
Sunrise:06:56 AM (PST) Moon Rise:08:37 AM (PST)2/14
Sunset:05:12 PM (PST) Moon Set:10:46 PM (PST)2/14

Copyright © 2014 The Weather Underground, Inc.